Temperature
12 12 12 13 13 13 13 13 13 13 13 13 14 14 14 14 14 14 14 14 14 14 14 14 14 14 14 14 13 13 13 13 13 13 13 13 13 14 14 14 13 13 13
12 12 12 12 13 13 13 13 13 13 13 13 14 14 14 14 14 14 14 14 14 14 14 14 14 14 14 13 13 13 13 13 13 12 12 12 13 13 13 13 13 13 13
11 11 12 12 12 13 13 13 13 13 13 13 13 13 13 13 13 14 14 14 14 14 14 14 14 14 14 13 13 13 13 13 13 12 12 12 13 12 12 13 13 12 12
11 11 12 12 12 12 13 13 13 13 13 13 13 13 13 13 14 14 14 14 14 14 14 13 13 13 13 13 13 13 13 12 12 12 12 12 12 12 12 12 12 12 11
11 11 11 12 12 12 12 12 13 13 13 13 13 13 13 13 13 13 13 13 13 13 13 13 13 13 13 13 13 13 13 12 12 12 12 12 12 11 11 11 11 11 11
10 10 11 11 12 12 12 12 12 13 13 13 13 13 13 13 13 13 13 13 13 13 13 13 13 13 13 13 13 13 12 12 12 12 12 12 12 11 11 10 10 10 10
10 10 10 11 11 12 12 12 12 12 13 12 12 13 13 13 13 13 13 13 13 13 13 13 13 13 13 13 13 12 12 12 12 12 12 12 11 11 11 10 10 9 9
10 10 10 10 11 11 12 12 12 12 13 13 12 12 13 12 12 13 13 13 13 13 13 13 13 13 13 12 12 12 12 12 12 12 12 11 11 11 11 10 9 9 8
9 10 10 10 10 11 11 12 12 12 12 12 12 12 12 12 12 12 12 13 13 13 12 12 12 12 12 12 12 12 12 12 12 11 11 11 11 11 10 10 9 8 8
8 9 9 10 10 11 11 11 11 12 12 12 12 12 12 12 12 12 12 12 12 12 12 12 12 12 12 12 12 12 12 11 11 11 11 11 10 10 10 9 9 8 7
7 8 9 9 10 10 10 11 11 11 11 12 12 12 12 12 12 12 12 12 12 12 12 12 12 12 12 11 11 11 11 11 11 11 10 10 10 10 9 9 8 8 7
7 7 8 8 9 9 10 10 10 11 11 11 11 12 12 12 12 12 12 12 12 12 12 11 11 11 11 11 11 11 11 11 10 10 10 10 9 9 9 8 8 7 7
6 6 7 8 8 9 9 9 10 10 11 11 11 11 11 11 11 11 11 11 11 11 11 11 11 11 11 10 10 10 10 10 10 9 9 9 9 8 8 8 7 7 6
6 6 6 7 7 8 8 9 9 9 10 10 10 10 10 10 10 10 11 11 11 11 10 10 10 10 10 10 10 10 9 9 9 9 9 8 8 8 7 7 7 6 6
5 5 6 6 6 7 7 8 8 9 9 9 10 10 10 10 10 10 10 10 10 10 10 10 10 9 9 9 9 9 9 9 9 8 8 8 7 7 6 6 6 5 5
4 5 5 6 6 6 7 7 8 8 8 8 9 9 9 9 9 9 9 9 9 9 9 9 9 9 9 9 8 8 8 8 8 7 7 7 6 6 6 5 5 4 4
4 4 5 5 5 6 6 7 7 7 7 8 8 8 8 8 8 8 8 8 8 8 8 8 8 8 8 8 8 7 7 7 7 6 6 6 5 5 5 4 4 3 3
3 4 4 4 5 5 6 6 6 7 7 7 7 7 7 7 7 7 7 7 7 7 7 7 7 7 7 7 7 6 6 6 6 6 5 5 5 4 4 3 3 3 3
3 3 4 4 4 5 5 6 6 6 6 6 6 7 7 7 7 7 7 7 7 7 7 6 6 6 6 6 6 6 6 5 5 5 4 4 4 3 3 3 2 2 2
3 3 3 4 4 4 4 5 5 5 6 6 6 6 6 6 6 6 6 6 6 6 6 6 5 5 5 5 5 5 5 5 4 4 4 3 3 3 2 2 2 1 1
2 2 3 3 3 4 4 4 4 5 5 5 5 5 5 5 5 5 5 5 5 5 5 4 4 5 5 5 4 4 4 4 4 3 3 3 2 2 1 1 1 1 0
2 2 2 2 3 3 3 4 4 4 4 4 4 4 5 4 4 4 4 4 4 4 4 4 4 4 4 4 4 4 4 3 3 3 2 2 2 1 1 0 0 0 -0
1 1 1 2 2 2 3 3 3 3 4 4 4 4 4 4 4 4 4 3 3 3 3 4 4 3 3 3 3 3 3 2 2 2 2 1 1 0 -0 -0 -0 -1 -1
1 1 1 1 1 2 2 2 2 3 3 3 3 3 3 3 3 3 3 3 3 3 3 3 3 3 3 3 3 3 2 2 1 1 1 0 -0 -0 -1 -1 -1 -1 -1
0 0 0 0 1 1 1 1 2 2 2 2 2 2 2 2 3 2 2 2 3 3 3 3 3 3 2 2 2 2 2 1 1 1 0 -0 -0 -1 -1 -1 -1 -1 -1
-0 -0 -0 0 0 0 0 1 1 1 1 2 2 2 2 2 2 2 2 2 2 2 2 2 2 2 2 2 1 1 1 1 0 0 -0 -0 -1 -1 -1 -1 -1 -2 -2
Wind_Speed
7 5 5 5 7 10 10 10 10 11 10 9 8 9 10 9 9 10 13 14 14 14 12 9 9 9 8 8 8 7 7 6 5 4 4 4 3 3 2 2 2 2 2
5 4 5 5 7 8 10 11 11 11 10 9 9 7 8 8 9 8 11 14 14 14 12 11 9 9 8 9 9 8 6 5 5 4 3 3 4 3 2 1 1 2 2
5 4 4 5 6 7 9 10 12 12 12 11 8 6 6 6 7 9 9 11 13 14 13 12 10 10 9 9 10 9 9 7 6 6 4 4 3 2 3 3 2 2 2
3 4 4 5 6 7 6 9 10 11 12 11 10 11 10 10 10 9 9 11 13 13 14 13 12 10 9 9 9 9 9 8 7 5 5 5 3 3 2 3 3 2 2
2 3 4 5 5 6 6 7 8 9 10 11 12 12 10 9 7 8 10 11 10 12 12 13 12 10 9 10 9 9 9 8 8 6 4 5 4 6 5 4 3 3 3
2 1 2 3 3 5 6 6 8 8 9 11 12 13 12 11 10 11 11 10 9 9 11 11 11 10 9 10 9 9 10 8 7 6 5 5 4 5 5 6 5 4 2
1 1 1 2 3 4 5 6 7 8 8 11 12 13 13 13 14 13 13 11 9 9 12 11 10 9 9 8 8 8 8 7 7 7 6 5 5 4 4 5 5 4 3
3 2 1 2 3 4 4 6 7 7 7 8 10 11 12 10 10 12 11 11 10 10 11 11 10 9 9 9 8 7 7 6 7 7 6 5 5 4 4 4 4 4 4
5 4 2 2 2 2 3 4 5 5 5 7 8 9 11 11 10 10 10 8 8 7 10 10 10 10 10 9 8 7 7 7 7 6 6 5 4 3 3 4 4 4 4
7 6 4 3 2 2 1 1 2 4 5 5 6 6 8 9 10 9 9 9 8 8 9 10 10 10 10 9 8 7 7 7 6 5 6 6 4 4 3 4 4 5 5
8 6 5 5 4 3 2 1 1 2 3 4 4 6 7 7 8 8 8 8 8 9 10 11 11 10 10 9 8 8 8 8 7 6 6 6 5 4 4 3 4 4 5
8 7 7 6 5 5 4 3 2 1 1 2 3 4 5 6 7 7 7 8 9 10 10 11 10 9 9 8 9 8 8 8 8 7 6 5 4 4 3 3 4 4 4
9 8 8 7 6 6 5 4 3 3 2 1 1 3 4 5 6 6 7 8 9 9 9 10 10 10 9 9 8 8 8 8 7 7 7 6 5 5 3 3 3 3 3
10 9 8 8 7 6 5 5 4 3 2 1 0 2 3 4 5 5 6 7 8 9 9 9 10 10 9 9 8 8 8 7 6 5 5 5 5 4 4 3 3 3 3
11 10 9 8 8 7 6 5 5 4 3 1 0 1 1 2 4 4 5 6 7 8 9 9 9 9 8 8 9 9 8 8 7 6 5 4 4 3 3 3 3 3 3
11 11 10 10 9 8 7 6 5 5 3 1 1 1 2 2 3 4 6 6 7 7 8 9 9 9 7 10 11 9 8 8 8 6 5 4 4 4 4 3 2 1 3
11 11 11 10 9 9 8 6 5 4 3 1 1 0 2 3 3 4 5 6 7 7 7 8 8 8 9 12 12 10 8 7 7 6 6 4 4 5 4 4 4 2 1
11 11 10 10 9 9 8 6 4 3 2 1 0 1 2 3 4 4 5 5 6 7 7 7 8 8 9 11 12 11 7 6 6 6 6 6 6 5 5 4 3 3 2
10 10 10 9 9 9 8 6 5 3 2 2 1 1 2 4 5 5 5 5 6 6 6 7 8 8 8 11 11 10 6 6 6 5 5 6 6 7 7 5 4 3 2
9 9 9 9 8 8 7 6 5 4 3 3 2 1 2 4 5 5 5 4 5 5 5 6 6 7 8 11 11 10 6 6 5 5 5 6 6 8 8 6 5 4 3
9 9 8 7 8 8 6 5 5 5 5 3 2 1 2 3 4 4 5 5 5 5 5 5 5 6 7 10 11 11 6 6 6 5 5 5 9 9 8 6 4 4 3
9 9 8 8 7 7 6 6 5 6 4 3 1 1 2 2 3 5 5 6 6 6 6 5 5 4 5 7 9 11 9 8 6 6 5 5 9 9 8 6 5 6 5
8 8 8 8 7 7 6 6 7 6 4 2 1 1 2 2 4 5 6 6 6 5 5 5 5 5 4 6 9 10 11 11 6 5 7 7 9 8 6 7 8 7 5
7 7 7 7 7 7 6 6 6 5 3 2 1 1 2 2 3 3 4 5 5 5 5 5 5 5 4 5 6 7 7 9 7 5 7 9 8 6 6 6 6 5 5
6 6 6 6 7 6 6 6 6 4 2 1 1 1 2 2 3 3 3 4 4 5 5 5 5 6 6 7 10 8 7 7 7 7 5 5 6 6 6 5 6 5 5
6 5 6 6 6 6 6 6 6 4 2 1 1 1 1 2 2 2 1 1 2 3 4 4 5 5 5 6 10 11 10 11 12 8 6 7 7 7 7 7 7 7 7
Wind_Direction
235 216 212 209 204 199 192 191 194 187 181 184 183 189 188 188 191 194 195 195 196 194 194 192 193 193 198 201 202 203 207 211 210 223 237 232 227 230 236 240 236 215 216
235 216 211 208 204 199 192 191 196 193 189 192 188 192 189 188 191 192 195 197 197 195 196 197 195 194 198 202 203 203 208 207 206 221 237 237 213 195 195 201 211 214 193
245 224 209 209 195 200 200 198 196 199 197 194 187 180 187 181 188 193 195 197 196 195 194 197 198 197 199 203 204 206 212 213 207 221 231 239 238 206 195 193 198 201 203
254 230 212 210 204 209 209 202 200 205 202 194 192 189 200 200 201 196 195 194 198 198 197 198 200 200 202 205 206 208 213 217 214 211 230 251 268 250 235 196 192 197 221
269 242 224 215 212 210 208 202 198 202 201 197 196 198 209 210 202 196 196 195 196 200 200 200 200 201 202 204 205 207 210 215 218 211 203 218 233 243 253 252 220 214 215
289 276 254 227 219 214 205 201 197 206 204 204 199 200 206 207 203 199 199 199 198 199 199 199 200 202 202 201 201 207 210 212 215 214 208 207 212 216 226 245 252 254 232
340 335 264 244 226 220 205 205 202 208 212 210 208 206 207 209 211 205 205 203 199 200 198 197 197 197 197 195 193 197 199 202 205 209 211 215 221 216 220 238 251 254 247
358 353 306 254 233 224 207 204 207 214 211 213 214 214 213 214 216 211 205 203 204 201 194 193 189 188 189 187 185 186 188 193 201 205 204 208 210 207 213 225 234 249 242
355 349 340 294 264 236 218 204 213 217 210 214 212 211 210 212 213 210 205 203 202 195 190 186 184 182 183 183 178 183 185 185 191 194 196 199 196 195 205 216 224 237 248
3 359 354 350 0 347 314 175 205 217 215 215 213 214 211 210 210 206 201 195 192 184 183 184 182 180 178 175 174 178 179 182 183 184 189 193 188 185 194 206 220 232 244
1 2 1 2 14 18 20 42 164 214 217 220 217 212 203 200 201 197 196 188 181 178 178 176 176 175 172 171 174 175 174 177 176 178 185 188 183 184 189 195 211 222 230
3 7 9 12 20 22 23 21 19 4 300 241 216 198 188 187 189 190 191 182 178 176 174 170 167 166 167 168 173 175 177 176 176 176 178 183 178 189 192 197 207 218 225
12 13 14 12 12 13 15 17 14 357 337 302 205 190 181 179 185 184 181 178 171 167 167 168 168 167 166 168 174 175 173 172 173 175 179 178 181 188 188 200 210 215 222
14 13 10 6 2 3 5 6 4 355 339 324 184 174 179 177 174 171 167 168 166 165 166 168 166 163 161 163 165 164 164 163 161 165 170 172 179 183 182 197 210 214 219
8 7 4 0 356 354 355 357 354 352 347 349 45 145 148 148 146 152 158 160 163 161 159 158 154 154 157 164 164 162 161 160 156 156 158 157 153 159 179 194 202 205 217
360 357 357 356 353 349 346 346 348 345 340 338 15 92 143 149 155 158 155 151 150 149 150 154 154 154 156 155 158 158 158 157 158 157 153 148 147 146 149 148 155 199 219
351 350 350 349 345 342 338 334 335 338 338 337 1 124 167 161 162 160 158 154 152 149 151 153 153 153 152 153 155 157 154 157 160 161 162 157 155 158 152 139 131 116 65
343 342 341 338 337 336 335 333 331 332 338 341 310 193 178 166 159 161 158 155 153 154 153 154 153 150 153 155 155 151 151 153 157 165 170 168 167 169 163 156 145 130 104
334 335 335 331 332 337 335 332 331 333 334 329 298 234 191 178 169 169 164 158 153 151 152 154 155 156 157 160 159 155 152 155 159 164 173 176 175 165 168 166 163 161 142
333 335 335 335 338 340 335 329 327 326 323 316 304 267 205 191 182 174 163 156 151 150 149 153 161 164 164 165 168 167 161 162 164 168 176 187 186 175 182 185 181 185 174
331 335 335 336 338 339 337 328 326 323 320 314 299 244 204 192 180 166 159 152 149 150 154 154 161 169 170 172 179 179 174 173 172 176 183 186 187 189 193 198 198 188 172
331 334 333 334 336 342 340 330 325 321 318 308 279 220 188 170 168 162 158 159 160 161 164 165 168 176 178 184 187 191 190 183 180 184 184 183 186 193 194 199 186 177 179
327 329 329 328 334 342 341 333 326 326 320 302 276 216 177 171 172 172 169 167 171 174 177 178 184 186 186 190 195 199 198 196 191 184 179 180 187 192 197 196 190 188 194
322 325 325 324 328 335 336 333 328 325 314 296 275 207 185 178 175 178 180 181 186 188 187 190 194 193 194 195 192 195 198 198 194 183 179 184 190 194 194 192 198 204 207
317 320 319 318 321 329 335 339 335 326 316 305 283 220 199 189 184 190 199 203 207 204 198 201 198 196 206 209 198 189 190 188 182 167 168 179 185 192 196 200 204 205 206
319 318 319 317 318 327 334 338 336 325 315 307 291 250 210 196 192 192 207 219 227 227 231 225 212 217 219 200 201 204 203 195 182 173 185 193 199 204 205 206 208 209 212
Height
1468 1469 1470 1471 1474 1477 1481 1484 1488 1492 1496 1501 1504 1507 1511 1515 1519 1523 1527 1531 1534 1537 1540 1543 1545 1548 1550 1553 1555 1556 1558 1559 1560 1561 1561 1561 1560 1560 1560 1560 1560 1559 1559
1465 1466 1468 1470 1472 1474 1478 1482 1486 1489 1493 1497 1501 1505 1509 1513 1516 1520 1524 1527 1531 1534 1537 1540 1542 1544 1547 1549 1552 1553 1555 1556 1557 1558 1559 1559 1559 1557 1557 1557 1557 1557 1556
1464 1465 1466 1469 1471 1473 1476 1480 1483 1486 1490 1493 1497 1501 1505 1509 1513 1516 1520 1523 1527 1530 1533 1536 1539 1541 1543 1546 1548 1550 1552 1553 1554 1555 1556 1557 1556 1556 1554 1554 1554 1553 1553
1463 1464 1465 1467 1468 1471 1474 1477 1480 1483 1486 1488 1492 1496 1499 1503 1507 1511 1515 1519 1523 1526 1529 1532 1534 1537 1539 1541 1544 1546 1547 1549 1550 1551 1552 1553 1553 1554 1553 1551 1551 1550 1550
1462 1463 1464 1465 1467 1469 1471 1474 1477 1479 1481 1484 1488 1492 1496 1499 1503 1507 1511 1514 1518 1521 1524 1527 1529 1532 1535 1537 1539 1541 1543 1544 1545 1546 1547 1548 1548 1549 1550 1549 1548 1547 1546
1461 1461 1462 1463 1465 1467 1469 1472 1474 1476 1478 1481 1484 1488 1492 1495 1499 1502 1505 1509 1512 1515 1518 1521 1524 1527 1529 1532 1534 1536 1538 1539 1541 1542 1543 1543 1544 1544 1545 1545 1545 1544 1543
1459 1460 1460 1461 1463 1465 1466 1468 1470 1473 1475 1478 1481 1484 1487 1491 1494 1497 1500 1504 1507 1509 1512 1516 1519 1521 1524 1526 1529 1531 1532 1534 1536 1537 1538 1539 1540 1540 1540 1541 1541 1540 1539
1459 1459 1460 1460 1461 1463 1464 1465 1467 1470 1472 1474 1477 1480 1482 1486 1490 1493 1496 1498 1501 1504 1507 1510 1513 1516 1518 1521 1524 1525 1527 1529 1531 1533 1533 1534 1535 1535 1536 1536 1537 1536 1536
1459 1458 1459 1459 1460 1460 1461 1462 1464 1466 1468 1471 1473 1476 1478 1481 1484 1488 1490 1493 1497 1500 1503 1505 1508 1511 1514 1516 1518 1520 1522 1525 1526 1528 1529 1530 1530 1530 1531 1531 1532 1533 1533
1458 1457 1458 1458 1457 1458 1458 1460 1462 1464 1466 1468 1469 1471 1474 1476 1480 1482 1485 1488 1491 1494 1497 1500 1503 1506 1508 1511 1513 1516 1517 1520 1521 1522 1523 1524 1525 1525 1526 1526 1527 1528 1528
1459 1458 1457 1456 1456 1457 1457 1458 1460 1462 1463 1465 1466 1468 1470 1473 1475 1477 1480 1483 1486 1489 1492 1495 1498 1500 1503 1506 1508 1510 1512 1514 1516 1517 1519 1519 1520 1520 1521 1521 1522 1523 1523
1460 1458 1457 1456 1456 1456 1456 1457 1458 1459 1461 1462 1463 1464 1466 1469 1471 1473 1476 1478 1481 1484 1486 1490 1492 1495 1498 1501 1503 1506 1508 1510 1511 1513 1514 1515 1515 1516 1516 1517 1517 1518 1518
1461 1459 1458 1457 1456 1456 1456 1456 1457 1458 1459 1459 1460 1461 1463 1465 1467 1469 1472 1474 1477 1479 1482 1485 1487 1490 1494 1496 1499 1501 1503 1505 1507 1508 1509 1510 1511 1511 1512 1512 1513 1513 1513
1462 1461 1459 1458 1457 1456 1456 1456 1456 1457 1457 1458 1458 1459 1460 1462 1464 1466 1468 1470 1472 1475 1478 1480 1483 1486 1489 1492 1495 1497 1499 1501 1502 1504 1504 1505 1506 1507 1507 1508 1508 1508 1508
1463 1462 1460 1458 1457 1456 1455 1455 1455 1455 1455 1455 1455 1456 1457 1459 1461 1463 1465 1467 1469 1471 1474 1476 1479 1482 1485 1488 1490 1493 1494 1496 1498 1499 1500 1500 1501 1502 1503 1503 1503 1503 1504
1465 1462 1460 1459 1457 1456 1455 1454 1454 1453 1453 1453 1453 1453 1455 1456 1458 1460 1462 1464 1466 1468 1470 1473 1475 1478 1481 1483 1486 1488 1490 1491 1493 1494 1495 1496 1497 1497 1498 1499 1499 1499 1500
1466 1463 1461 1459 1457 1456 1454 1453 1453 1452 1451 1451 1451 1451 1452 1454 1455 1457 1459 1461 1462 1464 1467 1469 1472 1474 1477 1479 1481 1483 1485 1487 1488 1490 1491 1492 1493 1493 1494 1494 1495 1495 1496
1466 1463 1461 1458 1456 1455 1453 1452 1451 1450 1449 1449 1449 1449 1450 1451 1453 1454 1456 1457 1459 1461 1463 1466 1468 1470 1473 1475 1478 1480 1481 1483 1484 1486 1487 1488 1488 1489 1490 1491 1491 1491 1492
1465 1463 1460 1458 1455 1453 1452 1450 1449 1448 1447 1447 1447 1447 1448 1449 1450 1451 1453 1455 1456 1458 1461 1463 1465 1467 1469 1471 1474 1476 1478 1479 1481 1482 1483 1484 1484 1485 1486 1487 1487 1488 1488
1464 1462 1459 1457 1454 1452 1450 1449 1448 1447 1446 1445 1445 1445 1445 1446 1448 1449 1451 1452 1454 1456 1458 1460 1462 1464 1466 1468 1470 1472 1474 1476 1477 1478 1479 1480 1481 1482 1482 1483 1484 1484 1484
1462 1460 1457 1455 1453 1451 1449 1448 1446 1445 1445 1444 1443 1443 1444 1445 1446 1447 1449 1450 1451 1453 1455 1457 1459 1461 1463 1464 1467 1469 1470 1472 1473 1474 1475 1476 1477 1478 1479 1479 1480 1480 1481
1460 1458 1455 1453 1451 1449 1448 1446 1445 1443 1443 1442 1442 1441 1442 1443 1444 1445 1446 1448 1449 1451 1453 1454 1456 1457 1459 1461 1463 1465 1467 1468 1469 1471 1471 1472 1473 1474 1475 1476 1476 1477 1477
1458 1456 1454 1452 1450 1448 1446 1444 1443 1441 1441 1440 1440 1440 1440 1441 1442 1443 1444 1445 1447 1448 1449 1451 1453 1454 1455 1457 1459 1461 1463 1464 1465 1467 1468 1469 1470 1470 1471 1472 1473 1474 1474
1457 1454 1452 1450 1448 1447 1445 1442 1441 1439 1438 1438 1438 1438 1438 1439 1440 1441 1442 1443 1444 1445 1446 1448 1449 1451 1452 1454 1455 1457 1458 1460 1461 1463 1464 1465 1466 1467 1468 1469 1469 1470 1471
1455 1453 1451 1449 1447 1445 1443 1441 1439 1438 1437 1436 1436 1435 1436 1436 1437 1438 1439 1440 1441 1443 1444 1445 1446 1447 1449 1450 1452 1453 1454 1455 1457 1458 1459 1461 1462 1463 1464 1465 1466 1466 1467
1452 1450 1448 1446 1444 1443 1441 1439 1438 1436 1435 1434 1433 1433 1433 1434 1434 1435 1436 1437 1438 1439 1440 1441 1442 1443 1445 1447 1448 1449 1450 1452 1453 1454 1455 1456 1457 1458 1459 1460 1461 1462 1463